Satellite-Ground Cal/Val Site Overpasses Predictions

Prediction of Satellite NPP Overpassing Cal/Val Site: Antarctic Dome C

Ground Cal/Val Site Location: Latitude: -75.10, Longitude: 123.35; Satellite-Ground Site NADIR distance within 100 km.

Table of predicted overpasses for the next 14.0 days since TLE Epoch: 1/8/2016
Interval Starting Time Ending Time Minimum Distance Time Minimum Distance (km)
1 01/08/2016 07:33:33 01/08/2016 07:34:02 01/08/2016 07:33:47 4.09
2 01/11/2016 14:56:57 01/11/2016 14:57:25 01/11/2016 14:57:11 19.70
3 01/12/2016 14:38:15 01/12/2016 14:38:28 01/12/2016 14:38:22 87.39
4 01/13/2016 07:39:45 01/13/2016 07:40:12 01/13/2016 07:39:59 38.97
5 01/14/2016 07:20:59 01/14/2016 07:21:19 01/14/2016 07:21:09 71.03
6 01/16/2016 15:03:12 01/16/2016 15:03:36 01/16/2016 15:03:24 56.70
7 01/17/2016 14:44:20 01/17/2016 14:44:45 01/17/2016 14:44:33 52.55
8 01/18/2016 07:46:01 01/18/2016 07:46:21 01/18/2016 07:46:11 74.07
9 01/19/2016 07:27:08 01/19/2016 07:27:35 01/19/2016 07:27:21 33.94


NCC Satellite Cal/Val Overpasses Prediction Service
